Disclaimer

Please do not use the information listed here in-flight or in-navigation, as they are not provided to us by the airports but are provided by volunteers, so they might be outdated.

Search


Regions


Airport information page

Radio informations:
Tower (TWR) - 124.675 MHz
OPS - 234.675 MHz
Ground (GND) - 122.1 MHz
DEP - 376.35 MHz
Automatic Terminal Information Service (ATIS) - 280.3 MHz
Approach (APP) - 120.8 MHz

Airport informations:
Latitude: 53° 05' 34.85" N
Longitude: 000° 09' 57.65" W
Elevation: 25 feet - 8 meters
Operating hours: Remarks
Operating agency: Military
Timezone: UTC 0(+1DT) - Last Sunday in March to last Sunday in October
Fuel: Jet A1+, Jet A1 with icing inhibitor.

Runway information:
07/25 - 9003 x 200 feet< - >2744 x 61 meters

Recent METARs:
EGXC 212050Z 19010KT 9999 FEW025 BKN040 OVC120 03/01 Q1010 BLU
EGXC 212050Z 19010KT 9999 FEW025 BKN040 OVC120 03/01 Q1010 BLU
EGXC 212150Z 18010KT 9999 FEW025 BKN050 OVC120 03/01 Q1009 BLU

Airport on the map: